Погода в Дубровках

Россия / Пензенская область     53°49′27″N   43°18′00″E
темп.,
°C
ветер,
м/с
пор.,
м/с
влажн.,
%
обл.,
%
осадки,
мм/ч
давл.,
гПа
погр.,
м
20 апреля, вт
вт2000:00+5в71272100 0.0 1022838
03:00+4в61283100 0.9 1022766
06:00+4в71276100 0.4 1022740
09:00+4вюв81479100 0.6 1022779
12:00+4вюв91581100 0.2 1021888
15:00+3вюв91788100 3.3 1020822
18:00+3вюв101882100 0.9 1017818
21:00+4вюв112089100 4.1 1014933
21 апреля, ср
ср2100:00+4вюв132491100 8.8 10101164
03:00+7юв122293100 10.2 10081071
06:00+7юв112090100 0.0 1008779
09:00+7ююв111888100 0.6 1008925
12:00+9ююв81588100 0.6 10081270
15:00+8ю81393100 1.3 1009778
18:00+8юз7118378 0.2 1013893
21:00+6ююз3790100 0.2 1015259
22 апреля, чт
чт2200:00+6ю411956 0.1 1016312
03:00+5ю48956 0.1 1017180
06:00+6ююз5119088 0.0 1018365
09:00+9юз587769 0.0 1019848
12:00+10юз686592 0.1 10201344
15:00+11зюз4763100 0.1 1020979
18:00+11зюз35636 0.1 1020169
21:00+8ююз22735 0.1 102214
23 апреля, пт
пт2300:00+7ююв467963 0.0 102181
03:00+7ююв4879100 0.0 1021143
06:00+8ю4108095 0.0 1021230
09:00+12ююз576584 0.0 1022459
12:00+15ююз445368 0.0 10211223
15:00+15ююз575589 1.6 1020878
18:00+14ююв486029 0.3 1019304
21:00+10юв410765 0.3 1019203
24 апреля, сб
сб2400:00+9ююв49812 0.0 1018158
03:00+7ююв37875 0.1 1016128
06:00+7ююв49874 0.0 1016212
09:00+12ююв686664 0.0 1014640
12:00+15ююв78549 1.0 10121549
15:00+15ю7953100 3.0 10101706
18:00+11зюз71078100 2.3 1010745
21:00+6з5692100 3.3 1011717